Location: Cz?stochówka
(50.8142°N, 19.0915°E)
Time: 06:11:32
(UTC+00:00)

IGS 5A - Pass Details

Date: 13 January 2026
Orbit: 551 x 554 km, 97.4° (Epoch: 8 January)

Event Time Altitude Azimuth Distance (km) Brightness Sun altitude
Rises 04:28:16 0° 16° (NNE) 2,742 7.0 -20.2°
Reaches altitude 10° 04:30:26 10° 20° (NNE) 1,842 6.1 -19.9°
Maximum altitude 04:34:23 61° 101° (E) 633 3.8 -19.2°
Drops below altitude 10° 04:38:18 10° 182° (S) 1,827 6.1 -18.6°
Sets 04:40:26 0° 186° (S) 2,716 6.9 -18.3°
